Flag for U.S.A. Weather past 2 weeks in Clarksville, Tennessee, U.S.A.

Now
63 °F

Fog.


Feels Like: 63 °F
Forecast: 65 / 79 °F
Wind: 5 mph from North

Location: Outlaw Field

Current Time: May 28, 2015 at 5:55:03 AM

Latest Report: May 28, 2015 at 4:52 AM


Visibility: 4 mi

Pressure: 30.14 "Hg

Humidity: 100%

Dew point: 63 °F

Location of ClarksvilleLocation

Historic Weather in Clarksville — Graph

°F

Clarksville temperature yesterday

Maximum temperature yesterday: 80 °F (at 10:52 AM)
Minimum temperature yesterday: 63 °F (at 5:52 AM)
Average temperature yesterday: 70 °F

Past Weeks' High & Low Weather Summary

 TemperatureHumidityPressure
High84 °F (May 15, 1:52 PM)100% (May 19, 2:52 AM)30.37 "Hg (May 19, 2:52 AM)
Low41 °F (May 22, 5:52 AM)29% (May 13, 3:52 PM)29.91 "Hg (May 20, 5:52 PM)
Average67 °F77%30.13 "Hg
* Reported May 13 4:52 AM — May 28 4:52 AM, Clarksville, Weather by CustomWeather, © 2015

Note: Actual official high and low records may vary slightly from our data, if they occured in-between our weather recording intervals... More about our weather records

Advertising

Clarksville weather history for previous 24 hours

 ConditionsComfort  
Time TempWeatherWind HumidityBarometerVisibility
4:52 AM
Thu, May 28
63 °FFog.5 mph100%30.14 "Hg4 mi
4:00 AM63 °FFog.No wind100%30.14 "Hg1 mi
2:52 AM65 °FFog.No wind97%30.13 "Hg0 mi
2:03 AM65 °FFog.3 mph100%30.15 "Hg2 mi
1:52 AM65 °FFog.3 mph100%30.14 "Hg1 mi
1:03 AM66 °FFog.No wind96%30.16 "Hg2 mi
12:52 AM67 °FFog.No wind97%30.14 "Hg5 mi
11:52 PM
Wed, May 27
68 °FClear.No wind96%30.15 "Hg10 mi
10:52 PM68 °FClear.3 mph93%30.15 "Hg10 mi
9:52 PM68 °FClear.5 mph93%30.15 "Hg10 mi
8:52 PM70 °FClear.5 mph90%30.14 "Hg10 mi
7:52 PM71 °FSunny.No wind87%30.12 "Hg10 mi
6:52 PM72 °FSunny.3 mph84%30.10 "Hg10 mi
5:52 PM73 °FSunny.3 mph81%30.11 "Hg10 mi
4:52 PM73 °FSunny.6 mph79%30.10 "Hg10 mi
3:52 PM71 °FSunny.5 mph84%30.11 "Hg10 mi
2:52 PM70 °FLight rain. Mostly cloudy.8 mph90%30.13 "Hg10 mi
1:52 PM69 °FThundershowers. Mostly cloudy.18 mph84%30.17 "Hg4 mi
1:01 PM77 °FThundershowers. Scattered clouds.13 mph77%30.16 "Hg10 mi
11:52 AM80 °FScattered clouds.9 mph71%30.12 "Hg10 mi
10:52 AM80 °FPartly sunny.9 mph71%30.13 "Hg10 mi
9:52 AM76 °FScattered clouds.13 mph80%30.14 "Hg10 mi
8:52 AM74 °FScattered clouds.7 mph85%30.13 "Hg10 mi
7:52 AM69 °FPartly sunny.6 mph93%30.13 "Hg10 mi
6:52 AM66 °FSunny.No wind96%30.11 "Hg8 mi
5:52 AM63 °FFog.5 mph97%30.10 "Hg1 mi
5:04 AM64 °FFog.5 mph97%30.10 "Hg3 mi
Weather by CustomWeather, © 2015

See weather overviewHow to use our weather pages